Weather in Sardan

Russia / Udmurt Republic     56°25′18″N   52°04′02″E
temp.,
°C
wind,
m/s
gust,
m/s
humid.,
%
clouds,
%
prec.,
mm/h
press.,
hPa
HPBL,
m
23 april, fri
fri2301:00+2s4119365 0.0 1026300
04:00+3s4992100 0.0 1026304
07:00+3s4895100 0.0 1027322
10:00+7s458153 0.0 1027511
13:00+11s456757 0.0 1027941
16:00+11sse456447 0.0 10261100
19:00+9e237350 0.0 102576
22:00+7ese388398 0.0 1024238
24 april, sat
sat2401:00+5e41092100 0.0 1023286
04:00+4e41192100 0.0 1021314
07:00+5e41087100 0.0 1019386
10:00+5e3793100 0.2 1017290
13:00+5e3995100 0.6 1016470
16:00+6e4897100 1.0 1014489
19:00+6ese3896100 0.3 1013508
22:00+5ese4896100 0.8 1011556
25 april, sun
sun2501:00+5ese4997100 0.0 1009465
04:00+5ese41095100 0.1 1007496
07:00+5ese41097100 2.6 1004543
10:00+3wsw61396100 5.7 1005698
13:00+8sw71068100 0.3 10071730
16:00+10wsw59475 0.6 10082341
19:00+6wsw4965100 0.4 1009514
22:00+4sw41183100 1.0 1012405
26 april, mon
mon2601:00+2sw412855 0.0 1013436
04:00+1sw512865 0.0 1014435
07:00+2sw512821 0.0 1015594
10:00+7sw713555 0.0 10151735
13:00+8sw7125783 0.3 10141778
16:00+10sw7135063 0.7 10142096
19:00+7sw5106295 0.2 1013808
22:00+4wsw2283100 0.3 101432
27 april, tue
tue2701:00+3ssw2277100 0.0 101329
04:00+3sw2281100 0.0 101221
07:00+5se247699 0.0 1011160
10:00+10ssw59495 0.0 10091534
13:00+9sw8116494 0.4 10081563
16:00+7wsw7107341 0.8 10091160
19:00+5wsw487680 0.1 1010811
22:00+2ssw3886100 0.1 1010178